Location: Shorne
(51.4000°N, 0.4333°E)
Time: 21:47:02
(UTC+00:00)

Daily predictions for brighter satellites

Satellite Brightness Start Highest point End
(mag) Time Altitude Azimuth Time Altitude Azimuth Time Altitude Azimuth
Landsat 7 3.9 18:25:50 10° SSE 18:30:32 83° WSW 18:35:16 10° NNW
Cosmos 2333 Rocket 4.4 18:27:55 10° W 18:32:37 25° NW 18:37:22 10° NNE
NOSS 0 Rocket 4.0 18:26:27 10° SSW 18:32:42 87° ESE 18:39:00 10° NNE
Cosmos 1975 4.5 18:33:29 10° ESE 18:35:31 14° E 18:37:35 10° NE
Resurs 01 Rocket 2.7 18:32:16 10° ESE 18:35:58 27° ENE 18:39:41 10° N
Cosmos 1707 2.7 18:34:45 10° NNW 18:38:19 78° W 18:41:51 10° S
USA 306 2.7 18:42:19 10° WNW 18:45:20 52° N 18:48:52 10° E
ISS -3.8 18:42:33 10° W 18:45:55 90° ESE 18:49:13 11° E
Cosmos 2034 Rocket 4.4 18:40:19 10° SSE 18:46:01 41° E 18:51:43 10° NNE
Meteor PRIRODA 3.5 18:44:40 10° SSE 18:47:51 49° ENE 18:51:02 10° N
Cosmos 2208 Rocket 4.1 18:46:12 10° S 18:51:23 59° ESE 18:56:40 10° NNE
GENESIS II 3.8 18:49:37 10° SW 18:53:06 84° SE 18:56:38 10° NE
Cosmos 1733 2.8 18:51:15 10° S 18:54:39 73° E 18:58:05 10° NNE
SL-16 R/B 2.8 18:50:20 10° S 18:55:23 34° ESE 19:00:26 10° NE
ACS3 Solar Sail 2.6 18:49:40 10° SE 18:55:24 36° ENE 19:01:07 10° N
SAR-Lupe-2 3.5 18:51:50 10° SSE 18:55:25 86° ENE 18:59:01 10° NNW
Cosmos 1315 Rocket 2.7 18:52:17 10° N 18:56:17 77° ENE 19:00:15 10° SSE
Cosmos 1805 3.6 18:55:04 10° SSE 18:58:24 35° E 19:01:46 10° NNE
Cosmos 1536 2.8 18:58:08 10° SSW 19:01:58 83° WNW 19:05:52 10° N
Resurs 1-3 3.7 18:59:21 10° SSE 19:03:41 82° WSW 19:08:03 10° NNW
Cosmos 2278 Rocket 4.2 19:01:08 10° NW 19:05:57 29° WSW 19:10:44 10° SSW
SPOT 1/Viking Rocket 3.6 19:02:08 10° SSE 19:07:18 86° WSW 19:12:29 10° NNW
Cosmos 1428 Rocket 4.4 19:01:12 10° N 19:07:19 66° ENE 19:13:24 10° SSE
Cosmos 1515 Rocket 4.2 19:03:21 10° NNW 19:07:39 59° W 19:11:57 10° S
ATLAS CENTAUR R/B 2.1 19:04:20 10° WSW 19:07:51 47° NW 19:11:34 10° NE
SL-14 R/B 3.3 19:04:53 10° N 19:08:38 52° ENE 19:12:23 10° SSE
Meteor 1-11 Rocket 3.6 19:03:11 10° S 19:08:44 75° E 19:14:16 10° NNE
ATLAS 2AS CENTAUR R/B 4.1 19:03:18 10° WNW 19:09:22 30° N 19:15:17 10° ENE
Meteor 2-9 Rocket 4.1 19:06:49 10° S 19:12:10 70° E 19:17:43 10° NNE
COSMOS 2428 4.3 19:07:29 10° WSW 19:12:45 37° NW 19:18:04 10° NNE
Meteor 1-21 4.4 19:07:56 10° N 19:13:38 54° ENE 19:19:18 10° SSE
ADEOS 3.8 19:09:23 10° S 19:14:34 75° WSW 19:19:50 10° NNW
CSL-04 Rocket 3.8 19:12:17 10° SE 19:17:27 55° ENE 19:22:35 10° N
CZ-4B DEB 4.3 19:13:36 10° SSE 19:19:06 84° WSW 19:24:38 10° NNW
CZ-4B R/B 3.2 19:13:59 10° SSE 19:19:17 62° ENE 19:24:32 10° N
Cosmos 1500 Rocket 3.4 19:19:31 10° S 19:23:51 76° E 19:28:11 10° NNE
USA 186 1.6 19:24:40 15° SSE 19:27:17 75° ENE 19:30:30 10° N
CZ-4B R/B 4.1 19:25:08 10° S 19:29:50 55° WSW 19:34:40 10° NNW
SJ-6B 3.6 19:26:50 10° S 19:30:18 47° W 19:33:48 10° NNW
ARGOS Delta rocket 4.1 19:25:41 10° S 19:30:29 68° W 19:35:05 10° NNW
Nadezhda 4 Rocket 4.4 19:24:36 10° NNW 19:30:52 67° W 19:37:07 10° S
Cosmos 2195 Rocket 4.4 19:25:05 10° N 19:31:15 85° E 19:37:25 10° S
Cosmos 773 Rocket 3.9 19:26:44 10° SSW 19:32:00 73° ESE 19:37:17 10° NNE
Cosmos 2237 Rocket 3.1 19:28:15 10° SW 19:33:43 51° NW 19:39:14 10° NNE
Cosmos 1743 Rocket 3.4 19:29:31 10° S 19:33:50 72° E 19:38:12 10° NNE
Cosmos 1408 Rocket 4.0 19:31:31 10° SSW 19:35:53 66° WNW 19:40:20 10° N
SL-08 R/B 3.6 19:31:11 10° NNE 19:36:07 74° WNW 19:41:00 10° SSW
Cosmos 2026 Rocket 3.9 19:30:06 10° N 19:36:20 79° E 19:42:26 10° SSE
Cosmos 1943 Rocket 4.4 19:32:25 10° NW 19:36:46 24° WSW 19:41:08 10° SSW
NOSS 3-3 (C) 3.9 19:31:29 10° SW 19:37:01 81° NW 19:43:40 10° NE
Helios 1A 2.9 19:33:09 10° NNE 19:37:15 85° WNW 19:41:20 10° SSW
USA 267 3.7 19:31:33 10° ENE 19:37:58 59° N 19:44:24 10° W
SeaSat 1 3.2 19:34:36 10° NNE 19:39:26 56° NW 19:44:13 10° SW
Cosmos 724 4.2 19:34:02 10° SSW 19:39:46 72° SE 19:45:35 10° NE
Cosmos 1766 3.8 19:41:43 33° E 19:41:43 33° E 19:44:55 10° NNE
Tiangong 0.4 19:40:31 10° SSW 19:41:06 11° S 19:41:06 11° S
Sich 1 3.1 19:38:25 10° SSW 19:42:42 77° W 19:47:05 10° N
Okean O Rocket 1.6 19:41:03 24° SE 19:43:33 61° ENE 19:47:55 10° N
USA 32 4.1 19:38:36 10° N 19:43:53 84° W 19:49:07 10° S
CARTOSAT-1 3.6 19:40:02 10° S 19:44:16 77° WSW 19:48:33 10° NNW
GEOS 3 Rocket 3.6 19:41:58 25° SE 19:45:03 80° NE 19:50:15 10° NW
Cosmos 1092 Rocket 4.0 19:40:33 10° N 19:46:57 90° E 19:53:19 10° S
NOSS 3-3 (A) 4.2 19:41:36 10° SW 19:47:08 70° NW 19:53:48 10° NE
BREEZE-M R/B 4.4 19:46:09 10° W 19:50:51 65° SSW 20:00:20 23° ESE
Cosmos 1656 Rocket 4.0 19:45:21 10° NW 19:50:56 63° WSW 19:55:32 15° SSE
CZ-4 R/B 2.5 19:47:24 10° S 19:51:06 43° W 19:54:54 10° NNW
Cosmos 2297 3.9 19:47:23 10° NW 19:53:00 69° WSW 19:57:17 18° SSE
CSL-04 Debris 4.3 19:48:59 10° SSE 19:54:28 77° WSW 19:59:58 10° NNW
SPOT 5 3.0 19:54:02 37° ESE 19:55:08 45° ENE 19:59:17 10° N
Cosmos 1607 4.0 19:50:10 10° SW 19:56:38 88° NW 20:03:07 10° NE
Cosmos 2369 Rocket 2.3 19:52:02 10° NNW 19:57:46 76° WSW 20:01:29 23° SSE
ARIANE 6 FM1 Upper Stage 3.0 19:54:18 10° SSW 19:58:11 42° SE 19:58:11 42° SE
Aureole 3 Rocket 3.5 19:53:29 10° SSW 19:58:51 67° W 20:02:46 10° N
Okean 2 3.6 19:54:59 10° N 19:58:52 45° ENE 19:59:08 44° E
Cosmos 2344 4.4 19:51:48 10° NW 19:59:01 44° NNE 20:05:08 20° E
MOS 1-B 4.3 19:54:21 15° SSE 19:59:15 86° WSW 20:05:04 10° NNW
BREEZE-M DEB (TANK) 4.2 19:38:10 10° W 20:00:30 79° S 20:03:29 32° ESE
CZ-4B R/B 4.3 19:57:01 10° SSW 20:00:48 38° W 20:04:45 10° NNW
Terra 2.7 20:00:58 30° ENE 20:01:27 31° ENE 20:05:35 10° N
Aureole 3 4.2 19:58:21 10° N 20:02:44 45° ENE 20:03:54 39° ESE
CRYOSAT 2 4.3 19:58:16 10° N 20:03:08 60° E 20:05:19 31° SSE
Cosmos 1441 Rocket 3.0 20:03:44 13° SSW 20:06:49 78° WNW 20:10:23 10° N
Cosmos 1634 Rocket 3.9 20:00:31 10° S 20:06:50 82° E 20:13:12 10° NNE
Cosmos 1805 Rocket 4.5 20:02:49 10° SSW 20:07:00 48° WNW 20:11:16 10° N
Okean 1-7 3.2 20:03:04 10° N 20:07:14 46° ENE 20:07:26 46° E
Cosmos 2228 Rocket 3.2 20:03:07 10° NNW 20:07:43 82° W 20:10:04 28° S
Cosmos 1633 Rocket 3.0 20:09:43 52° SE 20:10:18 57° E 20:14:38 10° NNE
NOSS 3-4 (A) 4.3 20:04:03 10° NW 20:10:41 57° SW 20:15:59 21° SSE
Cosmos 1975 3.2 20:06:55 10° SSW 20:10:45 62° WNW 20:14:38 10° N
NOSS 3-4 (C) 4.3 20:04:08 10° NW 20:10:47 57° SW 20:16:03 21° SSE
Cosmos 2084 Rocket 3.2 20:07:49 10° SW 20:12:06 71° SE 20:13:12 47° ENE
Resurs 01 Rocket 2.7 20:08:01 10° S 20:12:14 42° W 20:16:27 10° NNW
MetOp-B 4.1 20:11:40 40° SE 20:13:32 65° ENE 20:18:51 10° N
Cosmos 1538 Rocket 4.3 20:13:37 43° ESE 20:13:37 43° ESE 20:18:40 10° NE
RESURS DK-1 4.3 20:11:59 10° N 20:14:45 17° NE 20:14:56 17° NE
Cosmos 1980 Rocket 4.5 20:13:29 10° N 20:15:47 12° NNE 20:18:03 10° NE
Cosmos 192 4.4 20:11:21 10° NNW 20:16:14 73° WSW 20:18:09 37° S
USA 306 2.4 20:14:36 10° WNW 20:17:50 78° WSW 20:17:50 78° WSW
Okean-O 2.5 20:17:08 56° SE 20:18:02 78° ENE 20:22:27 10° NNW
Cosmos 1862 Rocket 3.7 20:15:38 10° NNW 20:20:05 75° W 20:21:40 39° S
MOS 1 Rocket 3.5 20:20:11 47° SE 20:21:36 68° ENE 20:26:59 10° N
ISS -3.2 20:19:22 10° W 20:22:09 57° W 20:22:09 57° W
Cosmos 1707 Rocket 4.0 20:18:48 10° NNW 20:23:10 61° W 20:25:01 32° SSW
Spot 2 Rocket 4.0 20:23:41 41° ENE 20:23:57 41° ENE 20:28:40 10° N
ERS-1 Rocket 3.0 20:26:14 54° E 20:26:50 58° ENE 20:31:47 10° N
IRS-1A Rocket 4.2 20:27:25 49° SE 20:28:54 69° ENE 20:34:29 10° NNW
Cosmos 1666 Rocket 3.5 20:28:15 38° SSW 20:29:51 79° W 20:34:13 10° N
Cosmos 1470 Rocket 4.0 20:33:03 50° NE 20:33:03 50° NE 20:36:36 10° NNE
Cosmos 1703 Rocket 4.0 20:28:36 10° N 20:32:25 49° NE 20:32:25 49° NE
Cosmos 1470 4.5 20:37:10 22° NNE 20:37:10 22° NNE 20:38:34 10° NNE
Cosmos 2142 Rocket 4.3 20:32:14 31° S 20:35:22 77° E 20:41:34 10° NNE
Cosmos 2279 Rocket 3.9 20:33:08 16° S 20:38:18 88° W 20:44:34 10° N
ACS3 Solar Sail 2.5 20:33:51 15° S 20:39:11 55° W 20:45:30 10° NNW
SL-16 R/B 3.0 20:33:47 10° SW 20:39:18 51° NW 20:44:51 10° NNE
SPOT 3 Rocket 3.9 20:41:30 47° ENE 20:41:30 47° ENE 20:46:17 10° N
Okean 3 4.4 20:39:40 10° NNW 20:43:39 44° W 20:44:38 36° SW
Meteor 2-5 Rocket 4.4 20:39:01 10° N 20:44:36 40° ENE 20:44:37 40° ENE
ATLAS CENTAUR R/B 4.0 20:43:46 10° WNW 20:46:07 16° NNW 20:48:31 10° NNE
Cosmos 2180 Rocket 4.4 20:48:16 38° S 20:50:55 86° E 20:57:18 10° N
Cosmos 1943 3.0 20:49:01 31° SSW 20:51:52 81° ESE 20:57:33 10° NNE
Ariane Rocket 3.1 20:57:45 61° NE 20:57:45 61° NE 21:02:23 10° N
Cosmos 1697 Rocket 4.1 20:53:16 10° NNW 20:57:54 25° NE 20:58:31 24° NE
ATLAS 2AS CENTAUR R/B 3.4 20:55:23 10° NW 21:01:58 43° NNE 21:03:49 36° ENE
Cosmos 489 Rocket 4.4 20:55:58 10° NNW 21:02:21 74° ENE 21:02:58 68° ESE
Cosmos 1655 Rocket 3.9 20:56:34 10° N 21:02:59 71° ENE 21:03:30 68° ESE
IRS-1C Rocket 4.1 21:04:12 70° SW 21:04:34 73° WSW 21:09:52 10° NNW
Okean O Rocket 4.0 21:18:23 15° WSW 21:20:11 18° W 21:23:18 10° NW
USA 267 3.6 21:18:34 43° ENE 21:20:33 59° N 21:26:59 10° WNW
Cosmos 2056 Rocket 3.8 21:15:35 10° NNW 21:20:07 63° N 21:20:07 63° N
Cosmos 2266 Rocket 4.4 21:19:53 10° NNW 21:26:06 59° W 21:27:22 50° SW
Terra 3.0 21:39:40 38° WNW 21:39:40 38° WNW 21:43:24 10° NNW
Cosmos 1656 4.3 21:53:21 10° NNW 21:57:39 52° NW 21:57:39 52° NW
Meteor 1-24 Rocket 4.3 21:53:56 10° NNW 21:58:47 55° NW 21:58:47 55° NW
Cosmos 1980 Rocket 3.6 21:56:42 10° NNW 22:00:49 30° NNE 22:00:49 30° NNE
Cosmos 2344 3.8 22:06:11 10° NW 22:14:18 83° SW 22:15:07 76° S
ATLAS CENTAUR R/B 4.4 22:23:18 10° NNW 22:24:11 12° N 22:24:11 12° N
Cosmos 1697 Rocket 4.0 22:36:54 10° NNW 22:40:13 37° NNW 22:40:13 37° NNW
Cosmos 2360 Rocket 4.5 22:45:52 10° N 22:49:19 16° NNE 22:50:33 15° NE
ATLAS 2AS CENTAUR R/B 3.4 22:46:32 10° NW 22:51:13 46° WNW 22:51:13 46° WNW
USA 267 4.1 23:05:55 42° WNW 23:05:55 42° WNW 23:10:03 10° WNW
Cosmos 2322 Rocket 4.2 23:02:59 10° NNW 23:07:17 21° NE 23:07:17 21° NE
SL-16 R/B 3.9 23:31:31 10° NNW 23:34:52 30° N 23:34:52 30° N
CZ-3B R/B 4.0 23:19:46 10° WNW 23:36:26 66° WNW 23:36:26 66° WNW
Cosmos 1980 Rocket 4.2 23:40:32 10° NW 23:42:32 23° NW 23:42:32 23° NW
Cosmos 2333 Rocket 3.9 23:47:31 10° NNW 23:51:31 28° NNE 23:51:31 28° NNE
